Location: Chełmno
(53.3480°N, 18.4232°E)
Time: 04:49:26
(UTC+01:00)

ISS - Visible Passes

Search period start: 24 November 2017 00:00
Search period end: 04 December 2017 00:00
Orbit: 402 x 407 km, 51.6° (Epoch: 24 November)

Date Brightness Start Highest point End Pass type
(mag) Time Alt. Az. Time Alt. Az. Time Alt. Az.
28 Nov -0.9 18:17:39 10° SSW 18:17:50 11° S 18:17:50 11° S visible
29 Nov -1.5 17:26:24 10° SSE 17:27:45 13° SE 17:27:45 13° SE visible
30 Nov -1.8 18:08:35 10° SW 18:10:15 22° SSW 18:10:15 22° SSW visible
01 Dec -2.1 17:16:42 10° SSW 17:19:16 21° SSE 17:20:01 19° SE visible
01 Dec -0.7 18:52:06 10° WSW 18:52:40 14° WSW 18:52:40 14° WSW visible
02 Dec -1.5 16:25:12 10° S 16:27:05 14° SE 16:28:58 10° ESE visible
02 Dec -2.8 17:59:50 10° SW 18:02:23 38° SSW 18:02:23 38° SSW visible
03 Dec -2.7 17:07:41 10° SW 17:10:40 33° SSE 17:12:04 23° ESE visible
03 Dec -1.1 18:43:37 10° WSW 18:44:42 19° WSW 18:44:42 19° WSW visible
